Starlink 6316

operational
NORAD ID: 57335 Int'l Des: 2023-099 Owner: SPXS Country: US Constellation: starlink
LEOCIRCULAR

Starlink 6316について

説明を読み込み中...

リアルタイム位置

3D地球を読み込み中...

次回通過

高度履歴

Altitude vs Time

uPlot chart will show altitude changes over time

軌道要素

1 57335U 23099H 26033.50481763 .00000970 00000-0 86859-4 0 9990
2 57335 43.0056 80.1817 0001470 273.9039 86.1635 15.02538548140828
Epoch: Feb 2, 2026 • Age: 15 hours

現在のステータス

高度 562.1 km
速度 7.59 km/s
衛星直下点 38.03°N, 22.18°E
打ち上げ日 Jul 16, 2023
運用期間 2.5 years
タイプ internet

技術仕様

分類 Payload
質量 305.00 kg
乾燥質量 290.00 kg
総質量 305.00 kg
長さ 0.20 m
直径 2.80 m
スパン 9.00 m
形状 Box + pan
製造者 SPXS
バスタイプ Starlink
フェーズステータス In Orbit
所有者/国 SPXS/US

大規模コンステレーション

Loading constellations...